Location: Wien
(48.2082°N, 16.3738°E)
Time: 10:33:19
(UTC+01:00)

Envisat - Pass Details

Date: 31 October 2019
Orbit: 764 x 766 km, 98.1° (Epoch: 12 November)

Event Time Altitude Azimuth Distance (km) Brightness Sun altitude
Rises 05:24:24 0° 30° (NNE) 3,242 6.6 -12.7°
Reaches altitude 10° 05:27:56 10° 56° (NE) 2,309 6.2 -12.1°
Maximum altitude 05:30:30 14° 87° (E) 2,045 6.5 -11.7°
Drops below altitude 10° 05:33:04 10° 117° (ESE) 2,300 6.8 -11.2°
Sets 05:36:34 0° 143° (SE) 3,219 7.0 -10.7°
